Time,TemperatureF,DewpointF,PressureIn,WindDirection,WindDirectionDegrees,WindSpeedMPH,WindSpeedGustMPH,Humidity,HourlyPrecipIn,Conditions,Clouds,dailyrainin,SoftwareType,DateUTC
2013-01-24 00:01:00,27.1,11.9,0.00,NNE,26,0.0,0.0,52,0.00,,---,0.00,VWS V13.01,2013-01-24 05:01:00,
2013-01-24 00:03:00,27.1,11.9,0.00,NNE,26,0.0,0.0,52,0.00,,---,0.00,VWS V13.01,2013-01-24 05:03:00,
2013-01-24 00:04:00,27.1,11.9,0.00,NNE,26,0.0,0.0,52,0.00,,---,0.00,VWS V13.01,2013-01-24 05:04:00,
2013-01-24 00:09:00,27.0,11.7,0.00,NNE,26,0.0,0.0,52,0.00,,---,0.00,VWS V13.01,2013-01-24 05:09:00,
2013-01-24 00:14:00,26.8,11.5,0.00,NNE,26,0.0,0.0,52,0.00,,---,0.00,VWS V13.01,2013-01-24 05:14:00,
2013-01-24 00:19:00,26.6,11.8,0.00,NNE,26,0.0,0.0,53,0.00,,---,0.00,VWS V13.01,2013-01-24 05:19:00,
2013-01-24 00:24:00,26.6,11.8,0.00,NNE,26,0.0,0.0,53,0.00,,---,0.00,VWS V13.01,2013-01-24 05:24:00,
2013-01-24 00:29:00,26.4,12.0,0.00,NNE,26,0.0,0.0,54,0.00,,---,0.00,VWS V13.01,2013-01-24 05:29:00,
2013-01-24 00:34:00,26.4,12.0,0.00,NNE,26,0.0,0.0,54,0.00,,---,0.00,VWS V13.01,2013-01-24 05:34:00,
2013-01-24 00:39:00,26.2,12.3,0.00,NNE,26,0.0,0.0,55,0.00,,---,0.00,VWS V13.01,2013-01-24 05:39:00,
2013-01-24 00:45:00,26.2,12.3,0.00,NNE,26,0.0,0.0,55,0.00,,---,0.00,VWS V13.01,2013-01-24 05:45:00,
2013-01-24 00:50:00,26.1,12.5,0.00,NNE,26,0.0,0.0,56,0.00,,---,0.00,VWS V13.01,2013-01-24 05:50:00,
2013-01-24 00:55:00,26.1,12.5,0.00,NNE,26,0.0,0.0,56,0.00,,---,0.00,VWS V13.01,2013-01-24 05:55:00,
2013-01-24 01:00:00,25.9,12.4,0.00,NNE,26,0.0,0.0,56,0.00,,---,0.00,VWS V13.01,2013-01-24 06:00:00,
2013-01-24 01:05:00,25.9,12.4,0.00,NNE,26,0.0,0.0,56,0.00,,---,0.00,VWS V13.01,2013-01-24 06:05:00,
2013-01-24 01:10:00,25.9,12.4,0.00,NNE,26,0.0,0.0,56,0.00,,---,0.00,VWS V13.01,2013-01-24 06:10:00,
2013-01-24 01:15:00,25.7,12.2,0.00,NNE,26,0.0,0.0,56,0.00,,---,0.00,VWS V13.01,2013-01-24 06:15:00,
2013-01-24 01:20:00,25.9,12.4,0.00,NNE,26,0.0,0.0,56,0.00,,---,0.00,VWS V13.01,2013-01-24 06:20:00,
2013-01-24 01:25:00,25.9,12.4,0.00,NNE,26,0.0,0.0,56,0.00,,---,0.00,VWS V13.01,2013-01-24 06:25:00,
2013-01-24 01:30:00,26.1,12.9,0.00,NNE,26,0.0,0.0,57,0.00,,---,0.00,VWS V13.01,2013-01-24 06:30:00,
2013-01-24 01:35:00,26.2,13.1,0.00,NNE,26,0.0,0.0,57,0.00,,---,0.00,VWS V13.01,2013-01-24 06:35:00,
2013-01-24 01:40:00,26.6,13.4,0.00,NNE,26,0.0,0.0,57,0.00,,---,0.00,VWS V13.01,2013-01-24 06:40:00,
2013-01-24 01:45:00,26.8,13.6,0.00,NNE,26,0.0,0.0,57,0.00,,---,0.00,VWS V13.01,2013-01-24 06:45:00,
2013-01-24 01:50:00,27.0,13.8,0.00,NNE,26,0.0,0.0,57,0.00,,---,0.00,VWS V13.01,2013-01-24 06:50:00,
2013-01-24 01:55:00,27.1,13.9,0.00,NNE,26,0.0,0.0,57,0.00,,---,0.00,VWS V13.01,2013-01-24 06:55:00,
2013-01-24 02:00:00,27.3,14.1,0.00,NNE,26,0.0,0.0,57,0.00,,---,0.00,VWS V13.01,2013-01-24 07:00:00,
2013-01-24 02:05:00,27.7,14.4,0.00,NNE,26,0.0,0.0,57,0.00,,---,0.00,VWS V13.01,2013-01-24 07:05:00,
2013-01-24 02:11:00,27.7,14.4,0.00,NNE,26,0.0,0.0,57,0.00,,---,0.00,VWS V13.01,2013-01-24 07:11:00,
2013-01-24 02:16:00,27.9,14.6,0.00,NNE,26,0.0,0.0,57,0.00,,---,0.00,VWS V13.01,2013-01-24 07:16:00,
2013-01-24 02:21:00,28.0,14.8,0.00,NNE,26,0.0,0.0,57,0.00,,---,0.00,VWS V13.01,2013-01-24 07:21:00,
2013-01-24 02:26:00,28.2,15.4,0.00,NNE,26,0.0,0.0,58,0.00,,---,0.00,VWS V13.01,2013-01-24 07:26:00,
2013-01-24 02:31:00,28.4,15.5,0.00,NNE,26,0.0,0.0,58,0.00,,---,0.00,VWS V13.01,2013-01-24 07:31:00,
2013-01-24 02:36:00,28.4,15.1,0.00,NNE,26,0.0,0.0,57,0.00,,---,0.00,VWS V13.01,2013-01-24 07:36:00,
2013-01-24 02:41:00,28.4,15.1,0.00,NNE,26,0.0,0.0,57,0.00,,---,0.00,VWS V13.01,2013-01-24 07:41:00,
2013-01-24 02:46:00,28.4,15.1,0.00,NNE,26,0.0,0.0,57,0.00,,---,0.00,VWS V13.01,2013-01-24 07:46:00,
2013-01-24 02:51:00,28.4,15.1,0.00,NNE,26,0.0,0.0,57,0.00,,---,0.00,VWS V13.01,2013-01-24 07:51:00,
2013-01-24 02:56:00,28.6,14.9,0.00,NNE,26,0.0,0.0,56,0.00,,---,0.00,VWS V13.01,2013-01-24 07:56:00,
2013-01-24 03:01:00,28.6,15.3,0.00,NNE,26,0.0,0.0,57,0.00,,---,0.00,VWS V13.01,2013-01-24 08:01:00,
2013-01-24 03:06:00,28.6,15.3,0.00,NNE,26,0.0,0.0,57,0.00,,---,0.00,VWS V13.01,2013-01-24 08:06:00,
2013-01-24 03:11:00,28.6,15.3,0.00,NNE,26,0.0,0.0,57,0.00,,---,0.00,VWS V13.01,2013-01-24 08:11:00,
2013-01-24 03:16:00,28.8,15.5,0.00,NNE,26,0.0,0.0,57,0.00,,---,0.00,VWS V13.01,2013-01-24 08:16:00,
2013-01-24 03:21:00,28.8,15.5,0.00,NNE,26,0.0,0.0,57,0.00,,---,0.00,VWS V13.01,2013-01-24 08:21:00,
2013-01-24 03:26:00,28.8,15.5,0.00,NNE,26,0.0,0.0,57,0.00,,---,0.00,VWS V13.01,2013-01-24 08:26:00,
2013-01-24 03:31:00,28.9,15.6,0.00,WSW,241,0.0,0.0,57,0.00,,---,0.00,VWS V13.01,2013-01-24 08:31:00,
2013-01-24 03:37:00,28.9,15.6,0.00,WSW,241,0.0,0.0,57,0.00,,---,0.00,VWS V13.01,2013-01-24 08:37:00,
2013-01-24 03:42:00,29.1,15.8,0.00,West,277,0.0,0.0,57,0.00,,---,0.00,VWS V13.01,2013-01-24 08:42:00,
2013-01-24 03:47:00,29.1,15.8,0.00,North,0,0.0,0.0,57,0.00,,---,0.00,VWS V13.01,2013-01-24 08:47:00,
2013-01-24 03:52:00,29.3,16.4,0.00,North,0,0.0,0.0,58,0.00,,---,0.00,VWS V13.01,2013-01-24 08:52:00,
2013-01-24 03:57:00,29.5,16.5,0.00,SW,232,0.0,0.0,58,0.00,,---,0.00,VWS V13.01,2013-01-24 08:57:00,
2013-01-24 04:02:00,29.5,16.5,0.00,West,276,0.0,0.0,58,0.00,,---,0.00,VWS V13.01,2013-01-24 09:02:00,
2013-01-24 04:07:00,29.7,16.7,0.00,SW,233,0.0,0.0,58,0.00,,---,0.00,VWS V13.01,2013-01-24 09:07:00,
2013-01-24 04:12:00,29.7,16.7,0.00,WNW,284,0.0,0.0,58,0.00,,---,0.00,VWS V13.01,2013-01-24 09:12:00,
2013-01-24 04:17:00,29.7,16.7,0.00,WNW,284,0.0,0.0,58,0.00,,---,0.00,VWS V13.01,2013-01-24 09:17:00,
2013-01-24 04:22:00,29.8,18.4,0.00,NE,36,2.7,4.0,62,0.00,,---,0.00,VWS V13.01,2013-01-24 09:22:00,
2013-01-24 04:27:00,30.0,18.2,0.00,NW,322,0.0,4.0,61,0.00,,---,0.00,VWS V13.01,2013-01-24 09:27:00,
2013-01-24 04:32:00,30.2,18.4,0.00,NNE,25,3.1,4.0,61,0.00,,---,0.00,VWS V13.01,2013-01-24 09:32:00,
2013-01-24 04:38:00,30.9,16.2,0.00,North,357,2.7,4.0,54,0.00,,---,0.00,VWS V13.01,2013-01-24 09:38:00,
2013-01-24 04:43:00,31.6,16.5,0.00,North,0,0.0,3.6,53,0.00,,---,0.00,VWS V13.01,2013-01-24 09:43:00,
2013-01-24 04:48:00,32.2,15.6,0.00,NNE,24,3.6,4.0,50,0.00,,---,0.00,VWS V13.01,2013-01-24 09:48:00,
2013-01-24 04:53:00,32.5,15.5,0.00,NNE,12,0.0,4.9,49,0.00,,---,0.00,VWS V13.01,2013-01-24 09:53:00,
2013-01-24 04:58:00,32.7,14.7,0.00,NNE,29,3.1,4.9,47,0.00,,---,0.00,VWS V13.01,2013-01-24 09:58:00,
2013-01-24 05:03:00,33.3,14.2,0.00,NNE,13,0.0,3.6,45,0.00,,---,0.00,VWS V13.01,2013-01-24 10:03:00,
2013-01-24 05:08:00,33.6,14.6,0.00,NNE,19,2.2,4.0,45,0.00,,---,0.00,VWS V13.01,2013-01-24 10:08:00,
2013-01-24 05:13:00,33.8,14.2,0.00,NNE,29,3.1,4.0,44,0.00,,---,0.00,VWS V13.01,2013-01-24 10:13:00,
2013-01-24 05:18:00,34.2,14.0,0.00,NNE,18,2.7,5.4,43,0.00,,---,0.00,VWS V13.01,2013-01-24 10:18:00,
2013-01-24 05:23:00,34.3,14.2,0.00,NNE,17,2.2,5.4,43,0.00,,---,0.00,VWS V13.01,2013-01-24 10:23:00,
2013-01-24 05:28:00,34.5,13.8,0.00,NNE,22,3.1,5.4,42,0.00,,---,0.00,VWS V13.01,2013-01-24 10:28:00,
2013-01-24 05:33:00,34.5,13.8,0.00,North,7,3.6,5.4,42,0.00,,---,0.00,VWS V13.01,2013-01-24 10:33:00,
2013-01-24 05:38:00,34.3,14.2,0.00,North,8,0.0,5.4,43,0.00,,---,0.00,VWS V13.01,2013-01-24 10:38:00,
2013-01-24 05:44:00,34.3,14.2,0.00,NNW,343,3.6,5.4,43,0.00,,---,0.00,VWS V13.01,2013-01-24 10:44:00,
2013-01-24 05:49:00,34.3,14.2,0.00,North,0,3.1,5.8,43,0.00,,---,0.00,VWS V13.01,2013-01-24 10:49:00,
2013-01-24 05:54:00,34.3,14.2,0.00,North,4,2.7,5.8,43,0.00,,---,0.00,VWS V13.01,2013-01-24 10:54:00,
2013-01-24 05:59:00,34.5,14.3,0.00,North,357,3.1,5.8,43,0.00,,---,0.00,VWS V13.01,2013-01-24 10:59:00,
2013-01-24 06:04:00,34.5,14.3,0.00,NNE,15,0.0,6.3,43,0.00,,---,0.00,VWS V13.01,2013-01-24 11:04:00,
2013-01-24 06:09:00,34.5,14.3,0.00,North,0,2.7,6.3,43,0.00,,---,0.00,VWS V13.01,2013-01-24 11:09:00,
2013-01-24 06:14:00,34.5,14.3,0.00,North,357,3.1,6.3,43,0.00,,---,0.00,VWS V13.01,2013-01-24 11:14:00,
2013-01-24 06:19:00,34.5,13.8,0.00,North,353,3.6,6.3,42,0.00,,---,0.00,VWS V13.01,2013-01-24 11:19:00,
2013-01-24 06:24:00,34.7,14.0,0.00,NNE,19,6.3,8.3,42,0.00,,---,0.00,VWS V13.01,2013-01-24 11:24:00,
2013-01-24 06:29:00,34.9,13.6,0.00,NNE,25,2.7,8.3,41,0.00,,---,0.00,VWS V13.01,2013-01-24 11:29:00,
2013-01-24 06:34:00,34.9,13.6,0.00,North,11,0.0,8.3,41,0.00,,---,0.00,VWS V13.01,2013-01-24 11:34:00,
2013-01-24 06:39:00,34.9,13.6,0.00,NNE,28,3.1,8.3,41,0.00,,---,0.00,VWS V13.01,2013-01-24 11:39:00,
2013-01-24 06:44:00,34.7,12.9,0.00,North,0,4.0,7.6,40,0.00,,---,0.00,VWS V13.01,2013-01-24 11:44:00,
2013-01-24 06:49:00,34.7,12.9,0.00,North,353,2.2,10.1,40,0.00,,---,0.00,VWS V13.01,2013-01-24 11:49:00,
2013-01-24 06:55:00,34.3,12.5,0.00,North,0,2.7,10.1,40,0.00,,---,0.00,VWS V13.01,2013-01-24 11:55:00,
2013-01-24 07:00:00,34.3,12.5,0.00,NNE,30,3.1,10.1,40,0.00,,---,0.00,VWS V13.01,2013-01-24 12:00:00,
2013-01-24 07:05:00,34.3,12.5,0.00,NNE,24,3.6,5.8,40,0.00,,---,0.00,VWS V13.01,2013-01-24 12:05:00,
2013-01-24 07:10:00,34.3,11.4,0.00,NNW,334,2.7,6.3,38,0.00,,---,0.00,VWS V13.01,2013-01-24 12:10:00,
2013-01-24 07:15:00,34.3,10.8,0.00,NE,44,4.9,8.3,37,0.00,,---,0.00,VWS V13.01,2013-01-24 12:15:00,
2013-01-24 07:20:00,34.3,10.2,0.00,NNE,21,5.8,6.3,36,0.00,,---,0.00,VWS V13.01,2013-01-24 12:20:00,
2013-01-24 07:25:00,34.3,10.2,0.00,NNW,330,4.9,8.3,36,0.00,,---,0.00,VWS V13.01,2013-01-24 12:25:00,
2013-01-24 07:30:00,34.2,10.0,0.00,NNE,14,0.0,8.3,36,0.00,,---,0.00,VWS V13.01,2013-01-24 12:30:00,
2013-01-24 07:35:00,34.0,9.9,0.00,North,10,2.2,8.3,36,0.00,,---,0.00,VWS V13.01,2013-01-24 12:35:00,
2013-01-24 07:40:00,34.0,9.9,0.00,NNE,18,3.1,3.1,36,0.00,,---,0.00,VWS V13.01,2013-01-24 12:40:00,
2013-01-24 07:45:00,34.0,9.2,0.00,North,0,4.0,6.3,35,0.00,,---,0.00,VWS V13.01,2013-01-24 12:45:00,
2013-01-24 07:50:00,34.0,9.2,0.00,North,8,0.0,6.3,35,0.00,,---,0.00,VWS V13.01,2013-01-24 12:50:00,
2013-01-24 07:55:00,34.0,9.9,0.00,NE,38,3.6,6.3,36,0.00,,---,0.00,VWS V13.01,2013-01-24 12:55:00,
2013-01-24 08:00:00,34.0,9.2,0.00,NNW,329,6.3,6.3,35,0.00,,---,0.00,VWS V13.01,2013-01-24 13:00:00,
2013-01-24 08:05:00,34.0,9.2,0.00,ENE,58,3.1,8.1,35,0.00,,---,0.00,VWS V13.01,2013-01-24 13:05:00,
2013-01-24 08:10:00,34.0,9.2,0.00,NNE,31,3.6,8.1,35,0.00,,---,0.00,VWS V13.01,2013-01-24 13:10:00,
2013-01-24 08:15:00,34.0,8.6,0.00,NNW,340,2.7,8.1,34,0.00,,---,0.00,VWS V13.01,2013-01-24 13:15:00,
2013-01-24 08:20:00,34.0,9.2,0.00,NNE,16,2.7,4.0,35,0.00,,---,0.00,VWS V13.01,2013-01-24 13:20:00,
2013-01-24 08:25:00,34.2,8.7,0.00,NNW,343,3.1,4.9,34,0.00,,---,0.00,VWS V13.01,2013-01-24 13:25:00,
2013-01-24 08:31:00,34.3,8.9,0.00,NNW,334,8.3,10.1,34,0.00,,---,0.00,VWS V13.01,2013-01-24 13:31:00,
2013-01-24 08:36:00,34.3,8.9,0.00,NNE,12,2.2,10.1,34,0.00,,---,0.00,VWS V13.01,2013-01-24 13:36:00,
2013-01-24 08:41:00,34.5,9.1,0.00,NNW,339,2.7,3.1,34,0.00,,---,0.00,VWS V13.01,2013-01-24 13:41:00,
2013-01-24 08:46:00,34.7,9.2,0.00,NNW,336,4.0,8.7,34,0.00,,---,0.00,VWS V13.01,2013-01-24 13:46:00,
2013-01-24 08:51:00,34.7,9.2,0.00,NNW,348,5.4,8.7,34,0.00,,---,0.00,VWS V13.01,2013-01-24 13:51:00,
2013-01-24 08:56:00,34.9,8.7,0.00,NNW,331,6.3,10.5,33,0.00,,---,0.00,VWS V13.01,2013-01-24 13:56:00,
2013-01-24 09:01:00,35.1,8.9,0.00,North,357,8.3,8.3,33,0.00,,---,0.00,VWS V13.01,2013-01-24 14:01:00,
2013-01-24 09:06:00,35.1,8.9,0.00,North,5,2.2,10.1,33,0.00,,---,0.00,VWS V13.01,2013-01-24 14:06:00,
2013-01-24 09:11:00,34.9,9.4,0.00,North,357,4.0,12.3,34,0.00,,---,0.00,VWS V13.01,2013-01-24 14:11:00,
2013-01-24 09:16:00,34.5,9.1,0.00,North,8,8.1,12.3,34,0.00,,---,0.00,VWS V13.01,2013-01-24 14:16:00,
2013-01-24 09:21:00,34.3,8.2,0.00,North,7,3.1,10.1,33,0.00,,---,0.00,VWS V13.01,2013-01-24 14:21:00,
2013-01-24 09:26:00,34.7,9.2,0.00,North,10,7.2,10.5,34,0.00,,---,0.00,VWS V13.01,2013-01-24 14:26:00,
2013-01-24 09:31:00,34.9,8.7,0.00,NW,326,6.3,10.5,33,0.00,,---,0.00,VWS V13.01,2013-01-24 14:31:00,
2013-01-24 09:36:00,34.9,8.7,0.00,NNE,25,5.4,10.5,33,0.00,,---,0.00,VWS V13.01,2013-01-24 14:36:00,
2013-01-24 09:41:00,35.1,8.9,0.00,NNE,14,6.3,8.7,33,0.00,,---,0.00,VWS V13.01,2013-01-24 14:41:00,
2013-01-24 09:46:00,34.7,8.6,0.00,NNW,334,8.1,16.3,33,0.00,,---,0.00,VWS V13.01,2013-01-24 14:46:00,
2013-01-24 09:51:00,34.3,7.6,0.00,North,10,8.7,16.3,32,0.00,,---,0.00,VWS V13.01,2013-01-24 14:51:00,
2013-01-24 09:56:00,34.2,7.4,0.00,NNE,23,5.4,16.3,32,0.00,,---,0.00,VWS V13.01,2013-01-24 14:56:00,
2013-01-24 10:01:00,34.2,7.4,0.00,North,353,2.7,7.2,32,0.00,,---,0.00,VWS V13.01,2013-01-24 15:01:00,
2013-01-24 10:06:00,34.5,7.7,0.00,NNW,348,14.5,14.5,32,0.00,,---,0.00,VWS V13.01,2013-01-24 15:06:00,
2013-01-24 10:11:00,34.3,6.9,0.00,NNE,33,4.0,14.5,31,0.00,,---,0.00,VWS V13.01,2013-01-24 15:11:00,
2013-01-24 10:16:00,34.3,6.9,0.00,NNW,334,8.3,14.5,31,0.00,,---,0.00,VWS V13.01,2013-01-24 15:16:00,
2013-01-24 10:21:00,33.8,6.4,0.00,NNW,343,8.1,11.0,31,0.00,,---,0.00,VWS V13.01,2013-01-24 15:21:00,
2013-01-24 10:26:00,33.6,6.2,0.00,NNW,344,8.7,11.0,31,0.00,,---,0.00,VWS V13.01,2013-01-24 15:26:00,
2013-01-24 10:31:00,33.3,5.9,0.00,NNW,340,7.6,11.4,31,0.00,,---,0.00,VWS V13.01,2013-01-24 15:31:00,
2013-01-24 10:36:00,33.6,6.2,0.00,WNW,296,5.4,13.2,31,0.00,,---,0.00,VWS V13.01,2013-01-24 15:36:00,
2013-01-24 10:41:00,33.4,6.1,0.00,NNW,334,8.7,8.7,31,0.00,,---,0.00,VWS V13.01,2013-01-24 15:41:00,
2013-01-24 10:47:00,33.4,6.1,0.00,NNE,21,5.8,8.7,31,0.00,,---,0.00,VWS V13.01,2013-01-24 15:47:00,
2013-01-24 10:52:00,33.6,6.2,0.00,NNE,14,4.0,11.0,31,0.00,,---,0.00,VWS V13.01,2013-01-24 15:52:00,
2013-01-24 10:57:00,33.6,5.5,0.00,NNW,342,5.8,11.4,30,0.00,,---,0.00,VWS V13.01,2013-01-24 15:57:00,
2013-01-24 11:02:00,33.4,5.3,0.00,NNW,343,5.8,13.2,30,0.00,,---,0.00,VWS V13.01,2013-01-24 16:02:00,
2013-01-24 11:07:00,33.1,5.8,0.00,North,6,3.1,13.2,31,0.00,,---,0.00,VWS V13.01,2013-01-24 16:07:00,
2013-01-24 11:12:00,33.3,5.9,0.00,NNW,343,5.8,13.2,31,0.00,,---,0.00,VWS V13.01,2013-01-24 16:12:00,
2013-01-24 11:17:00,33.3,5.9,0.00,North,357,7.6,13.2,31,0.00,,---,0.00,VWS V13.01,2013-01-24 16:17:00,
2013-01-24 11:22:00,33.3,5.9,0.00,ENE,70,4.0,5.4,31,0.00,,---,0.00,VWS V13.01,2013-01-24 16:22:00,
2013-01-24 11:27:00,33.1,5.8,0.00,NE,35,2.7,8.3,31,0.00,,---,0.00,VWS V13.01,2013-01-24 16:27:00,
2013-01-24 11:32:00,33.6,6.2,0.00,NNW,327,6.3,8.3,31,0.00,,---,0.00,VWS V13.01,2013-01-24 16:32:00,
2013-01-24 11:37:00,33.8,5.7,0.00,North,2,3.6,8.3,30,0.00,,---,0.00,VWS V13.01,2013-01-24 16:37:00,
2013-01-24 11:42:00,33.8,5.7,0.00,North,4,8.1,10.5,30,0.00,,---,0.00,VWS V13.01,2013-01-24 16:42:00,
2013-01-24 11:47:00,33.3,5.9,0.00,NNW,342,3.1,10.5,31,0.00,,---,0.00,VWS V13.01,2013-01-24 16:47:00,
2013-01-24 11:52:00,33.3,5.2,0.00,North,0,2.7,10.5,30,0.00,,---,0.00,VWS V13.01,2013-01-24 16:52:00,
2013-01-24 11:57:00,33.4,5.3,0.00,NE,38,5.8,10.5,30,0.00,,---,0.00,VWS V13.01,2013-01-24 16:57:00,
2013-01-24 12:02:00,33.6,5.5,0.00,North,7,6.3,11.0,30,0.00,,---,0.00,VWS V13.01,2013-01-24 17:02:00,
2013-01-24 12:07:00,33.6,5.5,0.00,NNE,18,4.0,11.0,30,0.00,,---,0.00,VWS V13.01,2013-01-24 17:07:00,
2013-01-24 12:12:00,34.0,5.8,0.00,North,8,5.4,11.0,30,0.00,,---,0.00,VWS V13.01,2013-01-24 17:12:00,
2013-01-24 12:17:00,34.0,5.8,0.00,NNE,13,5.8,11.0,30,0.00,,---,0.00,VWS V13.01,2013-01-24 17:17:00,
2013-01-24 12:22:00,34.0,5.8,0.00,NW,313,4.9,5.4,30,0.00,,---,0.00,VWS V13.01,2013-01-24 17:22:00,
2013-01-24 12:27:00,33.6,5.5,0.00,NNE,22,3.1,8.7,30,0.00,,---,0.00,VWS V13.01,2013-01-24 17:27:00,
2013-01-24 12:32:00,33.6,5.5,0.00,NNW,344,8.1,9.6,30,0.00,,---,0.00,VWS V13.01,2013-01-24 17:32:00,
2013-01-24 12:37:00,33.6,5.5,0.00,North,0,3.1,9.6,30,0.00,,---,0.00,VWS V13.01,2013-01-24 17:37:00,
2013-01-24 12:42:00,33.6,5.5,0.00,NNW,345,4.0,7.6,30,0.00,,---,0.00,VWS V13.01,2013-01-24 17:42:00,
2013-01-24 12:47:00,33.8,5.7,0.00,NNW,345,7.6,8.7,30,0.00,,---,0.00,VWS V13.01,2013-01-24 17:47:00,
2013-01-24 12:52:00,34.2,6.0,0.00,NNW,328,5.8,8.7,30,0.00,,---,0.00,VWS V13.01,2013-01-24 17:52:00,
2013-01-24 12:57:00,34.5,6.3,0.00,NNE,16,4.9,8.7,30,0.00,,---,0.00,VWS V13.01,2013-01-24 17:57:00,
2013-01-24 13:02:00,34.5,6.3,0.00,NNE,18,2.7,5.8,30,0.00,,---,0.00,VWS V13.01,2013-01-24 18:02:00,
2013-01-24 13:07:00,34.2,6.0,0.00,NNW,341,2.7,8.3,30,0.00,,---,0.00,VWS V13.01,2013-01-24 18:07:00,
2013-01-24 13:12:00,34.3,6.1,0.00,NNE,18,2.7,8.3,30,0.00,,---,0.00,VWS V13.01,2013-01-24 18:12:00,
2013-01-24 13:17:00,35.1,6.8,0.00,NNE,22,3.6,8.3,30,0.00,,---,0.00,VWS V13.01,2013-01-24 18:17:00,
2013-01-24 13:22:00,35.8,6.7,0.00,NNE,32,6.3,6.7,29,0.00,,---,0.00,VWS V13.01,2013-01-24 18:22:00,
2013-01-24 13:27:00,34.9,6.6,0.00,NNE,30,5.4,8.7,30,0.00,,---,0.00,VWS V13.01,2013-01-24 18:27:00,
2013-01-24 13:32:00,35.1,6.8,0.00,North,7,2.7,8.7,30,0.00,,---,0.00,VWS V13.01,2013-01-24 18:32:00,
2013-01-24 13:37:00,35.6,6.5,0.00,NNE,25,2.7,8.7,29,0.00,,---,0.00,VWS V13.01,2013-01-24 18:37:00,
2013-01-24 13:42:00,35.4,4.8,0.00,NNE,19,0.0,8.7,27,0.00,,---,0.00,VWS V13.01,2013-01-24 18:42:00,
2013-01-24 13:48:00,35.2,4.6,0.00,NNE,23,3.1,8.7,27,0.00,,---,0.00,VWS V13.01,2013-01-24 18:48:00,
2013-01-24 13:53:00,35.4,4.8,0.00,North,0,2.2,8.7,27,0.00,,---,0.00,VWS V13.01,2013-01-24 18:53:00,
2013-01-24 13:58:00,35.8,6.7,0.00,North,357,2.7,8.7,29,0.00,,---,0.00,VWS V13.01,2013-01-24 18:58:00,
2013-01-24 14:03:00,35.4,4.8,0.00,NNE,20,3.1,12.8,27,0.00,,---,0.00,VWS V13.01,2013-01-24 19:03:00,
2013-01-24 14:08:00,35.6,4.9,0.00,North,357,4.0,12.8,27,0.00,,---,0.00,VWS V13.01,2013-01-24 19:08:00,
2013-01-24 14:13:00,35.6,4.9,0.00,NNW,342,3.6,12.8,27,0.00,,---,0.00,VWS V13.01,2013-01-24 19:13:00,
2013-01-24 14:18:00,35.4,4.8,0.00,NNE,15,2.7,12.8,27,0.00,,---,0.00,VWS V13.01,2013-01-24 19:18:00,
2013-01-24 14:23:00,35.2,4.6,0.00,North,357,2.7,6.7,27,0.00,,---,0.00,VWS V13.01,2013-01-24 19:23:00,
2013-01-24 14:28:00,35.2,4.6,0.00,NNE,18,2.7,6.7,27,0.00,,---,0.00,VWS V13.01,2013-01-24 19:28:00,
2013-01-24 14:33:00,35.4,4.8,0.00,North,0,3.1,6.7,27,0.00,,---,0.00,VWS V13.01,2013-01-24 19:33:00,
2013-01-24 14:38:00,35.2,4.6,0.00,North,357,3.6,6.7,27,0.00,,---,0.00,VWS V13.01,2013-01-24 19:38:00,
2013-01-24 14:43:00,35.4,4.8,0.00,NNE,24,2.7,5.4,27,0.00,,---,0.00,VWS V13.01,2013-01-24 19:43:00,
2013-01-24 14:48:00,35.4,4.8,0.00,NNE,18,3.1,6.3,27,0.00,,---,0.00,VWS V13.01,2013-01-24 19:48:00,
2013-01-24 14:53:00,35.2,4.6,0.00,NNE,31,5.4,8.3,27,0.00,,---,0.00,VWS V13.01,2013-01-24 19:53:00,
2013-01-24 14:58:00,35.1,4.5,0.00,NNW,348,4.9,8.3,27,0.00,,---,0.00,VWS V13.01,2013-01-24 19:58:00,
2013-01-24 15:03:00,34.9,4.3,0.00,NNW,346,2.7,8.1,27,0.00,,---,0.00,VWS V13.01,2013-01-24 20:03:00,
2013-01-24 15:08:00,34.9,4.3,0.00,NNW,341,5.8,8.1,27,0.00,,---,0.00,VWS V13.01,2013-01-24 20:08:00,
2013-01-24 15:13:00,34.7,4.2,0.00,NE,51,3.1,8.1,27,0.00,,---,0.00,VWS V13.01,2013-01-24 20:13:00,
2013-01-24 15:18:00,34.3,3.8,0.00,NNE,25,3.6,8.1,27,0.00,,---,0.00,VWS V13.01,2013-01-24 20:18:00,
2013-01-24 15:23:00,33.6,4.0,0.00,NNE,16,4.0,5.8,28,0.00,,---,0.00,VWS V13.01,2013-01-24 20:23:00,
2013-01-24 15:28:00,33.1,3.5,0.00,NNE,30,5.4,5.8,28,0.00,,---,0.00,VWS V13.01,2013-01-24 20:28:00,
2013-01-24 15:33:00,32.7,3.2,0.00,North,10,0.0,5.8,28,0.00,,---,0.00,VWS V13.01,2013-01-24 20:33:00,
2013-01-24 15:38:00,32.7,3.2,0.00,NNE,12,5.4,5.8,28,0.00,,---,0.00,VWS V13.01,2013-01-24 20:38:00,
2013-01-24 15:43:00,32.5,3.1,0.00,North,3,2.2,6.3,28,0.00,,---,0.00,VWS V13.01,2013-01-24 20:43:00,
2013-01-24 15:48:00,32.5,3.1,0.00,North,11,0.0,6.3,28,0.00,,---,0.00,VWS V13.01,2013-01-24 20:48:00,
2013-01-24 15:53:00,32.4,2.9,0.00,NNE,20,5.4,6.3,28,0.00,,---,0.00,VWS V13.01,2013-01-24 20:53:00,
2013-01-24 15:58:00,32.2,2.8,0.00,North,3,3.1,6.3,28,0.00,,---,0.00,VWS V13.01,2013-01-24 20:58:00,
2013-01-24 16:03:00,32.2,2.8,0.00,NNE,20,4.0,4.0,28,0.00,,---,0.00,VWS V13.01,2013-01-24 21:03:00,
2013-01-24 16:08:00,32.4,2.9,0.00,NNE,19,5.8,5.8,28,0.00,,---,0.00,VWS V13.01,2013-01-24 21:08:00,
2013-01-24 16:13:00,32.4,2.9,0.00,NNW,343,0.0,6.3,28,0.00,,---,0.00,VWS V13.01,2013-01-24 21:13:00,
2013-01-24 16:18:00,32.4,2.9,0.00,NNE,33,2.7,6.3,28,0.00,,---,0.00,VWS V13.01,2013-01-24 21:18:00,
2013-01-24 16:23:00,32.4,2.9,0.00,NNE,18,0.0,4.0,28,0.00,,---,0.00,VWS V13.01,2013-01-24 21:23:00,
2013-01-24 16:28:00,32.5,3.1,0.00,NNW,343,3.6,4.0,28,0.00,,---,0.00,VWS V13.01,2013-01-24 21:28:00,
2013-01-24 16:33:00,32.4,2.9,0.00,NE,43,2.2,6.3,28,0.00,,---,0.00,VWS V13.01,2013-01-24 21:33:00,
2013-01-24 16:38:00,32.2,2.8,0.00,NNE,21,5.8,6.3,28,0.00,,---,0.00,VWS V13.01,2013-01-24 21:38:00,
2013-01-24 16:44:00,31.8,2.4,0.00,NNE,29,2.2,6.3,28,0.00,,---,0.00,VWS V13.01,2013-01-24 21:44:00,
2013-01-24 16:49:00,31.8,2.4,0.00,NE,34,2.7,6.3,28,0.00,,---,0.00,VWS V13.01,2013-01-24 21:49:00,
2013-01-24 16:54:00,31.6,2.3,0.00,NNE,32,4.0,6.3,28,0.00,,---,0.00,VWS V13.01,2013-01-24 21:54:00,
2013-01-24 16:59:00,31.6,2.3,0.00,NNE,15,0.0,6.3,28,0.00,,---,0.00,VWS V13.01,2013-01-24 21:59:00,
2013-01-24 17:04:00,31.5,2.1,0.00,NE,39,2.7,4.0,28,0.00,,---,0.00,VWS V13.01,2013-01-24 22:04:00,
2013-01-24 17:09:00,31.5,2.1,0.00,NE,42,2.7,4.0,28,0.00,,---,0.00,VWS V13.01,2013-01-24 22:09:00,
2013-01-24 17:14:00,31.3,2.0,0.00,NE,43,0.0,4.0,28,0.00,,---,0.00,VWS V13.01,2013-01-24 22:14:00,
2013-01-24 17:19:00,31.1,1.8,0.00,NNE,33,7.6,7.6,28,0.00,,---,0.00,VWS V13.01,2013-01-24 22:19:00,
2013-01-24 17:24:00,30.7,1.5,0.00,NNE,21,3.1,6.3,28,0.00,,---,0.00,VWS V13.01,2013-01-24 22:24:00,
2013-01-24 17:29:00,30.6,1.4,0.00,NNE,33,2.7,6.3,28,0.00,,---,0.00,VWS V13.01,2013-01-24 22:29:00,
2013-01-24 17:34:00,30.4,1.2,0.00,NE,43,2.7,6.3,28,0.00,,---,0.00,VWS V13.01,2013-01-24 22:34:00,
2013-01-24 17:39:00,30.2,1.0,0.00,NE,46,0.0,6.3,28,0.00,,---,0.00,VWS V13.01,2013-01-24 22:39:00,
2013-01-24 17:44:00,30.0,0.9,0.00,NE,38,0.0,2.7,28,0.00,,---,0.00,VWS V13.01,2013-01-24 22:44:00,
2013-01-24 17:49:00,29.8,0.7,0.00,NNW,345,4.9,4.9,28,0.00,,---,0.00,VWS V13.01,2013-01-24 22:49:00,
2013-01-24 17:54:00,29.7,0.6,0.00,North,8,0.0,4.9,28,0.00,,---,0.00,VWS V13.01,2013-01-24 22:54:00,
2013-01-24 17:59:00,29.5,0.4,0.00,NE,34,2.7,4.9,28,0.00,,---,0.00,VWS V13.01,2013-01-24 22:59:00,
2013-01-24 18:04:00,29.5,0.4,0.00,NNE,20,0.0,4.0,28,0.00,,---,0.00,VWS V13.01,2013-01-24 23:04:00,
2013-01-24 18:09:00,29.3,0.2,0.00,NNW,348,0.0,4.0,28,0.00,,---,0.00,VWS V13.01,2013-01-24 23:09:00,
2013-01-24 18:14:00,29.1,0.1,0.00,North,357,0.0,4.0,28,0.00,,---,0.00,VWS V13.01,2013-01-24 23:14:00,
2013-01-24 18:19:00,28.9,-0.1,0.00,NNE,16,0.0,4.0,28,0.00,,---,0.00,VWS V13.01,2013-01-24 23:19:00,
2013-01-24 18:24:00,28.9,-0.1,0.00,NNE,16,0.0,0.0,28,0.00,,---,0.00,VWS V13.01,2013-01-24 23:24:00,
2013-01-24 18:29:00,28.8,-0.2,0.00,NNE,16,0.0,0.0,28,0.00,,---,0.00,VWS V13.01,2013-01-24 23:29:00,
2013-01-24 18:35:00,28.6,-0.4,0.00,NNE,16,0.0,0.0,28,0.00,,---,0.00,VWS V13.01,2013-01-24 23:35:00,
2013-01-24 18:40:00,28.6,-0.4,0.00,NNE,16,0.0,0.0,28,0.00,,---,0.00,VWS V13.01,2013-01-24 23:40:00,
2013-01-24 18:45:00,28.4,1.6,0.00,NNE,16,0.0,0.0,31,0.00,,---,0.00,VWS V13.01,2013-01-24 23:45:00,
2013-01-24 18:50:00,28.0,1.3,0.00,NNE,16,0.0,0.0,31,0.00,,---,0.00,VWS V13.01,2013-01-24 23:50:00,
2013-01-24 18:55:00,28.0,1.3,0.00,NNE,27,0.0,0.0,31,0.00,,---,0.00,VWS V13.01,2013-01-24 23:55:00,
2013-01-24 19:00:00,28.0,1.3,0.00,NNE,25,3.1,3.6,31,0.00,,---,0.08,VWS V13.01,2013-01-25 00:00:00,
2013-01-24 19:05:00,28.0,1.3,0.00,North,353,2.2,3.1,31,0.00,,---,0.00,VWS V13.01,2013-01-25 00:05:00,
2013-01-24 19:10:00,27.9,-1.0,0.00,NNE,24,2.7,3.6,28,0.00,,---,0.00,VWS V13.01,2013-01-25 00:10:00,
2013-01-24 19:15:00,27.9,-1.0,0.00,NE,49,2.2,3.6,28,0.00,,---,0.00,VWS V13.01,2013-01-25 00:15:00,
2013-01-24 19:19:00,27.9,1.2,0.00,NE,48,0.0,3.6,31,0.00,,---,0.00,VWS V13.01,2013-01-25 00:19:00,
2013-01-24 19:24:00,27.7,1.0,0.00,NNE,17,0.0,2.7,31,0.00,,---,0.00,VWS V13.01,2013-01-25 00:24:00,
2013-01-24 19:30:00,27.5,0.8,0.00,North,0,0.0,2.7,31,0.00,,---,0.00,VWS V13.01,2013-01-25 00:30:00,
2013-01-24 19:35:00,27.5,0.8,0.00,North,0,0.0,2.7,31,0.00,,---,0.00,VWS V13.01,2013-01-25 00:35:00,
2013-01-24 19:40:00,27.1,0.5,0.00,North,357,0.0,2.7,31,0.00,,---,0.00,VWS V13.01,2013-01-25 00:40:00,
2013-01-24 19:45:00,27.0,0.4,0.00,North,357,0.0,0.0,31,0.00,,---,0.00,VWS V13.01,2013-01-25 00:45:00,
2013-01-24 19:50:00,27.0,0.4,0.00,North,0,0.0,0.0,31,0.00,,---,0.00,VWS V13.01,2013-01-25 00:50:00,
2013-01-24 19:55:00,26.8,0.2,0.00,ENE,71,0.0,0.0,31,0.00,,---,0.00,VWS V13.01,2013-01-25 00:55:00,
2013-01-24 20:00:00,26.8,0.2,0.00,North,0,0.0,3.1,31,0.00,,---,0.00,VWS V13.01,2013-01-25 01:00:00,
2013-01-24 20:05:00,26.6,0.7,0.00,NNW,344,0.0,0.0,32,0.00,,---,0.00,VWS V13.01,2013-01-25 01:05:00,
2013-01-24 20:10:00,26.4,0.6,0.00,ESE,106,0.0,0.0,32,0.00,,---,0.00,VWS V13.01,2013-01-25 01:10:00,
2013-01-24 20:15:00,26.2,0.4,0.00,North,8,0.0,0.0,32,0.00,,---,0.00,VWS V13.01,2013-01-25 01:15:00,
2013-01-24 20:20:00,26.1,0.2,0.00,North,2,0.0,3.1,32,0.00,,---,0.00,VWS V13.01,2013-01-25 01:20:00,
2013-01-24 20:25:00,25.9,0.1,0.00,North,3,0.0,0.0,32,0.00,,---,0.00,VWS V13.01,2013-01-25 01:25:00,
2013-01-24 20:30:00,25.9,0.1,0.00,North,3,0.0,0.0,32,0.00,,---,0.00,VWS V13.01,2013-01-25 01:30:00,
2013-01-24 20:35:00,25.9,0.1,0.00,North,4,0.0,0.0,32,0.00,,---,0.00,VWS V13.01,2013-01-25 01:35:00,
2013-01-24 20:40:00,25.9,0.1,0.00,North,4,0.0,0.0,32,0.00,,---,0.00,VWS V13.01,2013-01-25 01:40:00,
2013-01-24 20:45:00,25.9,0.1,0.00,North,4,0.0,0.0,32,0.00,,---,0.00,VWS V13.01,2013-01-25 01:45:00,
2013-01-24 20:50:00,25.7,-0.1,0.00,North,4,0.0,0.0,32,0.00,,---,0.00,VWS V13.01,2013-01-25 01:50:00,
2013-01-24 20:55:00,25.5,-0.2,0.00,North,4,0.0,0.0,32,0.00,,---,0.00,VWS V13.01,2013-01-25 01:55:00,
2013-01-24 21:00:00,25.3,0.3,0.00,North,357,0.0,0.0,33,0.00,,---,0.08,VWS V13.01,2013-01-25 02:00:00,
2013-01-24 21:05:00,25.2,-0.5,0.00,North,353,0.0,3.1,32,0.00,,---,0.00,VWS V13.01,2013-01-25 02:05:00,
2013-01-24 21:10:00,25.2,0.1,0.00,NE,44,0.0,3.1,33,0.00,,---,0.00,VWS V13.01,2013-01-25 02:10:00,
2013-01-24 21:15:00,25.0,-0.1,0.00,NNE,19,0.0,3.6,33,0.00,,---,0.00,VWS V13.01,2013-01-25 02:15:00,
2013-01-24 21:20:00,24.8,-0.2,0.00,NNE,21,0.0,0.0,33,0.00,,---,0.00,VWS V13.01,2013-01-25 02:20:00,
2013-01-24 21:25:00,25.0,-0.7,0.00,NE,34,0.0,3.1,32,0.00,,---,0.00,VWS V13.01,2013-01-25 02:25:00,
2013-01-24 21:30:00,25.2,-0.5,0.00,NE,34,0.0,3.1,32,0.00,,---,0.00,VWS V13.01,2013-01-25 02:30:00,
2013-01-24 21:35:00,25.2,-0.5,0.00,NE,34,0.0,3.1,32,0.00,,---,0.00,VWS V13.01,2013-01-25 02:35:00,
2013-01-24 21:40:00,25.0,-0.7,0.00,NNE,33,0.0,0.0,32,0.00,,---,0.00,VWS V13.01,2013-01-25 02:40:00,
2013-01-24 21:45:00,25.0,-0.7,0.00,NE,35,0.0,0.0,32,0.00,,---,0.00,VWS V13.01,2013-01-25 02:45:00,
2013-01-24 21:50:00,24.8,-0.2,0.00,NNE,32,0.0,0.0,33,0.00,,---,0.00,VWS V13.01,2013-01-25 02:50:00,
2013-01-24 21:55:00,24.8,-0.2,0.00,NNE,31,0.0,0.0,33,0.00,,---,0.00,VWS V13.01,2013-01-25 02:55:00,
2013-01-24 22:00:00,24.6,-0.4,0.00,NNE,31,0.0,0.0,33,0.00,,---,0.00,VWS V13.01,2013-01-25 03:00:00,
2013-01-24 22:05:00,24.4,-0.5,0.00,NNE,31,0.0,0.0,33,0.00,,---,0.00,VWS V13.01,2013-01-25 03:05:00,
2013-01-24 22:10:00,24.3,-0.7,0.00,NNE,32,0.0,0.0,33,0.00,,---,0.00,VWS V13.01,2013-01-25 03:10:00,
2013-01-24 22:15:00,24.3,-0.7,0.00,NNE,19,0.0,0.0,33,0.00,,---,0.00,VWS V13.01,2013-01-25 03:15:00,
2013-01-24 22:20:00,24.1,-0.9,0.00,NE,54,0.0,0.0,33,0.00,,---,0.00,VWS V13.01,2013-01-25 03:20:00,
2013-01-24 22:25:00,24.1,-0.9,0.00,NE,42,0.0,0.0,33,0.00,,---,0.00,VWS V13.01,2013-01-25 03:25:00,
2013-01-24 22:30:00,23.9,-1.0,0.00,NE,42,0.0,0.0,33,0.00,,---,0.00,VWS V13.01,2013-01-25 03:30:00,
2013-01-24 22:35:00,23.9,-1.0,0.00,NE,42,0.0,0.0,33,0.00,,---,0.00,VWS V13.01,2013-01-25 03:35:00,
2013-01-24 22:40:00,23.7,-0.5,0.00,NE,42,0.0,0.0,34,0.00,,---,0.00,VWS V13.01,2013-01-25 03:40:00,
2013-01-24 22:45:00,23.5,-0.7,0.00,NNE,31,0.0,0.0,34,0.00,,---,0.00,VWS V13.01,2013-01-25 03:45:00,
2013-01-24 22:50:00,23.5,-0.7,0.00,NNE,13,0.0,0.0,34,0.00,,---,0.00,VWS V13.01,2013-01-25 03:50:00,
2013-01-24 22:55:00,23.5,-0.7,0.00,NNE,13,0.0,0.0,34,0.00,,---,0.00,VWS V13.01,2013-01-25 03:55:00,
2013-01-24 23:00:00,23.4,-0.9,0.00,NNE,13,0.0,0.0,34,0.00,,---,0.00,VWS V13.01,2013-01-25 04:00:00,
2013-01-24 23:05:00,23.2,-1.0,0.00,NNE,24,0.0,0.0,34,0.00,,---,0.00,VWS V13.01,2013-01-25 04:05:00,
2013-01-24 23:10:00,23.2,-1.0,0.00,NNE,28,0.0,0.0,34,0.00,,---,0.00,VWS V13.01,2013-01-25 04:10:00,
2013-01-24 23:15:00,23.2,-1.0,0.00,NNE,28,0.0,0.0,34,0.00,,---,0.00,VWS V13.01,2013-01-25 04:15:00,
2013-01-24 23:20:00,23.2,-1.0,0.00,NNE,28,0.0,0.0,34,0.00,,---,0.00,VWS V13.01,2013-01-25 04:20:00,
2013-01-24 23:25:00,23.0,-1.2,0.00,NNE,28,0.0,0.0,34,0.00,,---,0.00,VWS V13.01,2013-01-25 04:25:00,
2013-01-24 23:30:00,23.0,-1.2,0.00,NNE,28,0.0,0.0,34,0.00,,---,0.00,VWS V13.01,2013-01-25 04:30:00,
2013-01-24 23:35:00,23.0,-1.2,0.00,NNE,28,0.0,0.0,34,0.00,,---,0.00,VWS V13.01,2013-01-25 04:35:00,
2013-01-24 23:40:00,22.8,-1.3,0.00,NNE,29,0.0,0.0,34,0.00,,---,0.00,VWS V13.01,2013-01-25 04:40:00,
2013-01-24 23:45:00,22.8,-1.3,0.00,NNE,29,0.0,0.0,34,0.00,,---,0.00,VWS V13.01,2013-01-25 04:45:00,
2013-01-24 23:50:00,22.8,-1.3,0.00,NNE,29,0.0,0.0,34,0.00,,---,0.00,VWS V13.01,2013-01-25 04:50:00,
2013-01-24 23:55:00,22.8,-1.3,0.00,NNE,29,0.0,0.0,34,0.00,,---,0.00,VWS V13.01,2013-01-25 04:55:00,